Regional Weather Roundup
Issued by NWS Cleveland, OH

Home | Current Version | Previous Version | Text Only | Print | Product List | Glossary Off
Versions: 1 2 3 4 5 6 7 8 9 10 11 12 13 14 15 16 17 18 19 20 21 22 23 24 25 26 27 28 29 30 31 32 33 34 35 36 37 38 39 40 41 42 43 44 45 46 47 48 49 50

000
ASUS41 KCLE 301710
RWRCLE
OHIO REGIONAL WEATHER ROUNDUP
NATIONAL WEATHER SERVICE CLEVELAND, OH
100 PM EDT SAT MAY 30 2015

NOTE: "FAIR" INDICATES FEW OR NO CLOUDS BELOW 12,000 FEET WITH NO
SIGNIFICANT WEATHER AND/OR OBSTRUCTIONS TO VISIBILITY.

OHZ001>008-015>018-024>027-034-035-043-044-301800-
   NORTHWEST OHIO

CITY           SKY/WX    TMP DP  RH WIND       PRES   REMARKS
DEFIANCE       MOSUNNY   79  65  62 SW9       29.99F
FINDLAY        MOSUNNY   81  64  56 SW6       30.00F
TOLEDO EXPRESS MOSUNNY   82  65  56 W10       29.98F
TOLEDO EXEC    MOSUNNY   82  65  56 SW13      29.99F
LIMA           PTSUNNY   82  66  58 SW15      30.01F
$$

OHZ009>014-019>023-028>033-038-089-301800-
   NORTHEAST OHIO

CITY           SKY/WX    TMP DP  RH WIND       PRES   REMARKS
CLE-HOPKINS    PTSUNNY   78  67  68 SW9       30.04S
CLE-LAKEFRONT  PTSUNNY   77  66  68 W7        30.00F
CUY CO. ARPT   PTSUNNY   82  68  61 W12       30.03F
LORAIN-ELYRIA  LGT RAIN  72  68  87 S10       30.03S
ASHTABULA      PTSUNNY   78  69  73 W8        30.03F
AKRON-CANTON   CLOUDY    81  67  62 SW17G23   30.07F
WOOSTER        PTSUNNY   77  69  76 SW13      30.06F
MANSFIELD      CLOUDY    74  64  71 W9G22     30.07F
YOUNGSTOWN     PTSUNNY   80  66  62 S12       30.05F
$$

OHZ042-051>053-060>062-070>072-077>081-301800-
  SOUTHWEST OHIO

CITY           SKY/WX    TMP DP  RH WIND       PRES   REMARKS
CINC-COVINGTON MOSUNNY   82  68  62 SW10      30.05F
CINC-LUNKEN    MOSUNNY   81  67  62 SW13      30.04F
HAMILTON       MOSUNNY   83  68  60 SW8       30.04F
DAYTON         PTSUNNY   83  67  58 S13       30.04F
WRIGHT-PAT AFB MOSUNNY   82  65  56 SW18      30.03F
DAYTON GENERAL MOSUNNY   81  68  64 S13       30.04F
WILMINGTON     MOSUNNY   81  64  56 S13       30.06F
$$

OHZ036-037-039>041-045>050-054>059-063>069-073>076-082>088-301800-
  CENTRAL AND SOUTHEAST OHIO

CITY           SKY/WX    TMP DP  RH WIND       PRES   REMARKS
COLUMBUS       PTSUNNY   81  67  62 SW13      30.06F
OSU AIRPORT    MOSUNNY   80  70  71 S7        30.05F
BOLTON FIELD   MOSUNNY   82  66  57 S16       30.06F
RICKENBACK AFB SUNNY     81  68  65 SW12G18   30.06F
NEWARK         PTSUNNY   79  69  71 SW9       30.07F
MARION         PTSUNNY   83  65  54 SW14G20   30.04F
LANCASTER      PTSUNNY   81  68  64 VRB7      30.07F
ZANESVILLE     NOT AVBL
NEW PHILLY     LGT RAIN  73  67  81 S6        30.09F
$$



USA.gov is the U.S. government's official web portal to all federal, state and local government web resources and services.